Precipitable_Water
1.01 1.07 1.09 1.07 1.07 1.08 1.07 1.10 1.15 1.03 0.87 0.66 0.62 0.59 0.56 0.56 0.53 0.62 0.60 0.59 0.55 0.60 0.74 0.75 0.72 0.68 0.65 0.62 0.59 0.59 0.59 0.59 0.57 0.56 0.56 0.54 0.51 0.52 0.52 0.51 0.51 0.49 0.47
1.23 1.20 1.17 1.11 1.08 1.09 1.18 1.18 1.03 0.88 0.70 0.65 0.61 0.57 0.55 0.53 0.52 0.52 0.59 0.61 0.58 0.56 0.60 0.61 0.66 0.63 0.62 0.59 0.60 0.58 0.58 0.61 0.59 0.60 0.59 0.57 0.56 0.55 0.55 0.54 0.54 0.53 0.53
1.28 1.26 1.21 1.12 1.08 1.25 1.19 1.05 0.88 0.73 0.63 0.60 0.57 0.55 0.54 0.54 0.54 0.50 0.54 0.60 0.60 0.58 0.54 0.55 0.60 0.61 0.61 0.61 0.61 0.60 0.60 0.59 0.61 0.65 0.64 0.60 0.64 0.65 0.63 0.62 0.62 0.60 0.59
1.30 1.26 1.16 1.17 1.29 1.18 1.03 0.89 0.78 0.65 0.62 0.59 0.57 0.55 0.55 0.56 0.54 0.51 0.52 0.53 0.56 0.52 0.55 0.52 0.49 0.47 0.46 0.49 0.48 0.47 0.50 0.52 0.53 0.55 0.61 0.64 0.67 0.67 0.69 0.71 0.65 0.63 0.61
1.29 1.21 1.27 1.31 1.20 1.04 0.90 0.80 0.71 0.64 0.60 0.58 0.58 0.58 0.62 0.60 0.55 0.53 0.53 0.53 0.51 0.51 0.51 0.49 0.49 0.48 0.48 0.47 0.44 0.43 0.42 0.42 0.43 0.46 0.48 0.56 0.57 0.55 0.54 0.55 0.59 0.65 0.65
1.28 1.35 1.33 1.17 1.05 0.94 0.84 0.75 0.67 0.67 0.64 0.64 0.65 0.65 0.63 0.66 0.62 0.58 0.59 0.57 0.52 0.51 0.52 0.52 0.53 0.54 0.52 0.48 0.45 0.45 0.41 0.40 0.40 0.41 0.42 0.43 0.43 0.44 0.43 0.44 0.45 0.49 0.54
1.35 1.29 1.25 1.11 1.03 0.90 0.81 0.73 0.69 0.65 0.65 0.71 0.68 0.69 0.74 0.73 0.68 0.64 0.61 0.56 0.55 0.54 0.55 0.53 0.54 0.54 0.53 0.50 0.49 0.48 0.40 0.38 0.37 0.35 0.35 0.36 0.36 0.37 0.38 0.39 0.40 0.42 0.47
1.34 1.32 1.23 1.11 1.02 0.88 0.78 0.73 0.70 0.68 0.74 0.77 0.69 0.71 0.60 0.65 0.68 0.68 0.62 0.57 0.56 0.55 0.53 0.55 0.55 0.53 0.51 0.48 0.45 0.42 0.40 0.38 0.37 0.36 0.33 0.32 0.33 0.34 0.35 0.37 0.38 0.39 0.40
1.31 1.34 1.26 1.16 1.01 0.89 0.79 0.76 0.74 0.73 0.72 0.78 0.81 0.73 0.61 0.55 0.59 0.61 0.59 0.56 0.54 0.52 0.54 0.56 0.55 0.53 0.51 0.46 0.43 0.41 0.39 0.38 0.36 0.34 0.32 0.31 0.32 0.34 0.35 0.35 0.36 0.38 0.40
1.28 1.32 1.29 1.18 1.04 0.96 0.86 0.81 0.82 0.82 0.81 0.77 0.81 0.81 0.75 0.68 0.56 0.50 0.56 0.55 0.56 0.54 0.55 0.54 0.52 0.47 0.46 0.45 0.42 0.41 0.39 0.37 0.35 0.35 0.32 0.30 0.30 0.32 0.34 0.34 0.34 0.34 0.35
1.29 1.33 1.26 1.22 1.11 1.03 0.97 0.89 0.89 0.87 0.84 0.82 0.79 0.76 0.68 0.63 0.62 0.54 0.44 0.45 0.49 0.52 0.51 0.46 0.43 0.42 0.42 0.41 0.41 0.41 0.39 0.36 0.33 0.32 0.29 0.27 0.29 0.31 0.32 0.32 0.32 0.33 0.34
1.27 1.30 1.23 1.17 1.13 1.07 0.98 0.95 0.91 0.89 0.84 0.84 0.84 0.74 0.67 0.63 0.57 0.53 0.48 0.46 0.45 0.46 0.46 0.42 0.38 0.36 0.37 0.40 0.40 0.41 0.39 0.35 0.31 0.31 0.29 0.28 0.28 0.29 0.29 0.29 0.29 0.30 0.31
1.14 1.21 1.19 1.14 1.15 1.10 1.02 0.97 0.94 0.91 0.87 0.87 0.82 0.79 0.76 0.66 0.59 0.57 0.53 0.47 0.43 0.43 0.40 0.37 0.34 0.34 0.33 0.36 0.39 0.39 0.39 0.36 0.34 0.33 0.31 0.29 0.29 0.29 0.28 0.27 0.24 0.25 0.27
1.07 1.14 1.16 1.15 1.17 1.13 1.05 1.01 0.96 0.93 0.90 0.85 0.81 0.79 0.70 0.66 0.64 0.59 0.54 0.46 0.38 0.36 0.34 0.31 0.33 0.33 0.33 0.34 0.38 0.39 0.39 0.38 0.37 0.36 0.34 0.32 0.31 0.28 0.26 0.22 0.22 0.23 0.25
1.11 1.15 1.16 1.15 1.15 1.12 1.06 1.02 0.97 0.90 0.89 0.91 0.86 0.78 0.74 0.70 0.66 0.63 0.55 0.47 0.39 0.28 0.27 0.30 0.28 0.31 0.30 0.31 0.34 0.35 0.35 0.37 0.38 0.38 0.36 0.32 0.30 0.28 0.26 0.21 0.21 0.22 0.22
1.19 1.16 1.13 1.15 1.13 1.11 1.06 1.02 0.97 0.95 0.93 0.88 0.80 0.78 0.72 0.69 0.65 0.59 0.53 0.45 0.40 0.33 0.26 0.30 0.29 0.31 0.32 0.32 0.34 0.36 0.38 0.39 0.38 0.37 0.35 0.34 0.30 0.27 0.25 0.22 0.21 0.20 0.21
1.17 1.12 1.13 1.16 1.12 1.07 1.04 1.00 0.99 0.93 0.84 0.80 0.78 0.73 0.70 0.66 0.58 0.55 0.47 0.41 0.37 0.35 0.29 0.29 0.31 0.33 0.32 0.32 0.32 0.34 0.37 0.38 0.39 0.35 0.37 0.34 0.28 0.26 0.25 0.22 0.20 0.20 0.20
1.13 1.09 1.06 1.08 1.06 1.05 1.02 0.98 0.90 0.87 0.81 0.75 0.71 0.66 0.61 0.59 0.52 0.46 0.44 0.40 0.36 0.35 0.33 0.29 0.33 0.33 0.33 0.35 0.35 0.34 0.34 0.36 0.36 0.33 0.35 0.30 0.27 0.25 0.23 0.22 0.21 0.22 0.22
1.13 1.10 1.05 0.99 0.95 0.98 0.94 0.93 0.87 0.77 0.73 0.70 0.64 0.59 0.54 0.48 0.41 0.40 0.37 0.35 0.35 0.36 0.36 0.33 0.30 0.32 0.32 0.34 0.33 0.32 0.31 0.34 0.33 0.36 0.34 0.31 0.28 0.25 0.26 0.24 0.24 0.24 0.23
1.11 1.05 0.95 0.90 0.97 0.87 0.83 0.73 0.72 0.66 0.62 0.59 0.57 0.49 0.42 0.38 0.35 0.32 0.32 0.33 0.34 0.33 0.33 0.30 0.29 0.29 0.31 0.31 0.30 0.27 0.26 0.30 0.33 0.36 0.33 0.31 0.28 0.26 0.26 0.26 0.26 0.26 0.25
1.07 0.97 0.93 0.91 0.87 0.78 0.70 0.65 0.59 0.59 0.56 0.49 0.43 0.39 0.36 0.34 0.32 0.32 0.30 0.29 0.29 0.28 0.28 0.28 0.27 0.27 0.27 0.26 0.25 0.26 0.28 0.34 0.35 0.34 0.32 0.28 0.26 0.25 0.27 0.27 0.26 0.25 0.26
0.98 0.92 0.87 0.80 0.72 0.70 0.60 0.60 0.59 0.54 0.46 0.37 0.32 0.31 0.29 0.28 0.28 0.28 0.29 0.29 0.30 0.29 0.28 0.29 0.30 0.31 0.31 0.30 0.30 0.26 0.29 0.32 0.27 0.32 0.28 0.25 0.27 0.25 0.25 0.24 0.24 0.26 0.26
0.88 0.79 0.74 0.70 0.64 0.63 0.63 0.57 0.50 0.44 0.38 0.32 0.30 0.28 0.29 0.30 0.31 0.31 0.32 0.32 0.32 0.33 0.34 0.33 0.31 0.32 0.32 0.32 0.32 0.26 0.26 0.29 0.26 0.28 0.26 0.22 0.25 0.23 0.23 0.24 0.27 0.26 0.26
0.73 0.70 0.68 0.64 0.63 0.60 0.54 0.50 0.46 0.41 0.37 0.35 0.33 0.34 0.32 0.30 0.30 0.29 0.27 0.26 0.27 0.29 0.32 0.34 0.34 0.33 0.35 0.34 0.35 0.29 0.28 0.28 0.27 0.26 0.27 0.20 0.22 0.21 0.25 0.28 0.26 0.24 0.24
0.70 0.66 0.62 0.59 0.54 0.51 0.50 0.48 0.44 0.40 0.37 0.34 0.33 0.29 0.26 0.24 0.23 0.22 0.21 0.20 0.19 0.20 0.23 0.27 0.30 0.32 0.34 0.34 0.36 0.32 0.27 0.26 0.22 0.23 0.26 0.23 0.22 0.24 0.26 0.24 0.25 0.24 0.25
0.60 0.58 0.54 0.54 0.51 0.48 0.48 0.44 0.38 0.34 0.29 0.26 0.25 0.25 0.23 0.21 0.22 0.23 0.23 0.23 0.21 0.21 0.24 0.24 0.24 0.30 0.32 0.37 0.36 0.31 0.30 0.25 0.24 0.21 0.24 0.22 0.22 0.25 0.21 0.24 0.23 0.24 0.24
Wind_Speed
15 14 15 14 13 12 10 9 8 7 6 6 7 7 9 10 11 11 13 14 15 15 17 19 21 21 22 23 24 24 25 25 25 25 25 25 26 25 25 25 25 25 25
15 15 14 13 12 12 10 9 8 8 7 7 8 9 11 12 12 14 14 15 16 18 19 21 22 23 24 24 25 26 27 27 27 27 27 28 27 27 27 27 27 27 27
16 16 14 13 12 11 10 9 8 8 8 8 10 11 12 13 13 15 16 16 18 19 21 23 24 25 25 27 28 28 28 28 29 28 29 29 30 30 29 30 30 30 30
16 16 14 13 12 11 10 10 10 9 10 10 12 13 13 15 15 15 16 18 20 23 24 24 26 27 28 29 30 30 30 30 31 30 30 30 30 31 32 32 33 33 33
16 15 14 13 12 11 11 10 11 11 11 12 14 15 16 17 16 16 19 20 23 25 27 27 27 30 29 29 30 31 31 31 31 32 32 32 32 33 34 35 35 37 37
16 15 14 14 13 12 11 12 12 12 13 14 16 16 17 18 18 20 21 22 25 26 27 27 30 31 30 30 32 32 31 31 32 33 34 35 36 37 38 38 39 40 40
16 15 15 14 14 13 13 13 13 14 14 16 18 18 20 20 20 22 23 25 27 28 30 31 32 30 31 33 34 33 32 33 34 35 36 37 38 40 41 42 43 43 44
16 17 16 15 15 15 15 15 16 16 17 17 18 20 20 20 22 23 25 28 29 30 32 33 33 33 34 34 35 36 36 35 36 37 38 40 41 42 43 44 45 46 46
18 18 18 17 17 17 17 18 18 19 19 20 19 20 21 21 23 25 28 30 31 34 35 34 34 36 36 36 36 37 36 37 39 40 42 43 44 45 46 47 48 49 50
18 20 19 20 20 20 19 20 20 21 21 21 21 23 24 24 24 26 28 32 35 36 36 37 37 37 37 38 39 39 39 40 41 43 45 46 47 48 49 51 52 52 53
19 20 21 21 22 23 22 22 22 22 21 23 25 27 26 25 27 29 32 34 35 35 36 36 39 40 40 41 41 42 42 42 44 46 48 48 49 51 52 53 54 54 53
21 22 22 22 23 24 23 23 24 24 25 26 27 27 27 29 31 33 36 38 38 38 38 39 39 41 42 42 43 44 45 46 46 48 49 50 51 52 53 54 53 52 51
21 24 25 25 26 26 25 25 26 26 27 29 29 29 30 31 32 34 37 39 39 39 39 40 41 42 43 44 45 46 47 49 49 50 51 51 51 52 53 53 50 48 45
23 25 26 27 27 27 26 27 27 27 28 29 30 31 30 33 35 37 38 40 40 40 41 41 41 41 42 44 45 47 49 51 52 52 52 51 52 52 50 48 45 43 40
24 26 27 28 29 28 27 27 28 28 29 32 30 30 34 34 36 38 39 41 41 42 42 42 43 43 46 46 47 48 50 52 52 53 52 52 51 50 48 44 41 39 37
24 26 27 27 28 28 27 28 29 31 31 30 31 33 35 36 38 39 40 41 42 43 45 44 46 47 47 48 49 50 51 52 53 53 53 52 51 47 44 42 39 37 35
24 24 26 24 26 24 27 29 31 29 30 32 34 36 38 40 41 41 41 42 43 44 46 48 48 49 50 51 52 52 51 52 52 53 52 50 47 43 42 38 36 34 32
22 22 20 23 24 25 28 29 28 30 34 34 36 38 40 40 41 42 43 43 44 45 47 50 51 51 51 51 52 51 53 53 53 51 47 46 41 39 36 34 34 32 30
21 21 22 23 24 26 26 28 31 33 33 35 36 38 39 40 41 42 42 44 45 46 48 50 52 53 53 52 52 53 53 54 51 45 43 40 36 35 35 34 32 30 30
22 22 23 24 24 26 28 29 31 32 34 36 37 37 39 40 42 42 43 44 46 47 48 50 52 53 53 54 54 53 53 48 44 41 38 36 36 35 35 31 30 30 30
23 24 24 24 27 28 28 30 31 33 34 35 37 38 40 40 42 44 45 47 48 50 51 52 53 54 53 52 51 51 48 45 41 37 36 35 35 34 30 28 28 28 26
23 25 25 27 27 28 30 31 33 35 36 37 38 39 40 42 44 45 46 48 49 51 53 53 54 54 54 52 50 48 44 38 37 35 35 35 32 31 29 29 28 26 26
25 25 26 27 29 31 32 33 34 35 36 37 39 41 42 43 44 46 48 49 51 52 53 55 55 55 54 51 48 46 41 37 34 33 33 32 31 31 30 27 26 25 26
25 26 28 29 31 32 32 33 34 35 37 39 40 41 43 45 46 48 50 52 54 54 54 55 55 55 53 49 45 42 37 34 32 31 32 32 30 28 25 24 24 25 25
27 28 29 30 31 31 32 33 35 36 38 40 42 44 45 46 47 50 52 53 54 55 55 56 56 53 50 48 41 38 34 32 31 31 30 29 27 25 24 23 23 23 22
28 29 29 29 30 32 33 34 36 38 40 42 43 44 46 47 49 50 52 53 55 55 55 54 51 49 47 42 38 35 32 30 29 28 28 26 24 22 21 22 20 20 22
Wind_Direction
204 210 207 207 211 209 221 234 245 252 265 276 291 300 306 311 311 312 315 319 321 319 317 317 318 318 317 317 316 315 314 312 312 310 309 308 306 303 300 298 296 294 292
213 203 201 204 209 216 227 232 242 254 262 274 289 298 303 307 309 309 310 314 317 317 316 316 314 313 313 314 313 313 312 310 308 307 306 305 303 301 299 296 294 292 290
204 197 201 208 214 219 225 234 245 253 263 275 288 296 299 304 307 308 309 310 313 314 315 315 312 312 311 310 310 310 309 308 307 303 302 303 301 299 296 293 291 290 288
199 197 206 212 217 221 231 241 248 255 267 279 289 294 298 300 303 306 309 312 313 313 312 313 312 311 309 308 308 308 306 306 305 304 302 301 300 296 295 292 290 288 287
199 208 212 217 222 231 237 244 250 261 271 282 289 294 296 297 298 300 306 307 310 312 311 310 311 311 309 309 309 309 307 305 304 303 301 299 299 297 294 292 290 286 284
209 213 218 223 229 235 242 248 254 264 275 285 293 296 296 296 296 300 303 305 310 311 312 309 310 310 308 308 308 308 307 306 304 302 301 299 298 297 294 292 290 287 284
217 222 224 231 233 242 248 252 258 266 279 287 294 295 296 293 294 298 301 303 307 309 311 309 309 308 308 307 307 305 305 304 303 301 300 299 298 297 295 293 290 288 285
225 227 232 238 241 248 253 256 260 268 280 287 292 298 301 297 295 297 300 303 304 307 309 309 307 307 307 306 306 305 305 303 302 301 301 300 299 297 295 294 292 289 286
231 233 239 242 247 253 258 260 263 270 280 284 288 295 299 298 301 304 303 305 307 308 309 309 307 306 305 305 304 304 304 303 302 301 301 300 299 298 296 295 292 290 287
238 238 244 248 250 256 261 264 265 271 278 285 290 292 293 294 298 303 305 307 308 307 307 307 306 305 304 304 303 303 303 302 302 302 302 301 300 299 298 296 294 291 288
245 245 253 253 255 257 263 266 269 272 278 285 289 293 292 292 295 300 306 308 307 307 307 308 307 306 304 303 303 302 302 302 302 302 302 302 300 300 299 297 295 293 289
251 250 255 257 259 258 263 266 270 273 278 284 289 291 292 293 296 300 305 308 308 308 306 306 306 305 304 302 301 300 300 301 302 302 303 302 300 300 300 298 296 293 290
257 256 259 260 261 261 266 269 273 275 278 284 287 291 291 296 298 300 304 307 307 307 306 306 305 305 304 301 300 299 300 301 301 302 302 302 301 301 300 299 296 294 291
262 263 263 264 264 263 266 270 272 276 280 284 287 290 292 295 297 300 302 306 306 306 307 307 306 306 306 306 302 301 301 301 302 302 302 302 301 301 300 298 296 293 291
270 268 268 266 263 263 265 269 274 278 282 287 286 289 294 295 297 300 301 303 304 306 306 306 306 306 305 304 303 301 301 301 301 301 301 302 301 300 298 297 295 292 289
273 273 271 267 263 264 265 269 276 281 284 286 286 290 294 295 298 300 301 302 302 303 304 305 306 306 306 305 304 302 301 301 301 301 300 300 301 298 296 295 293 290 287
277 276 276 261 270 258 271 272 278 280 284 286 289 292 293 296 298 300 301 302 302 302 303 305 306 306 306 305 304 303 302 302 301 301 299 300 299 296 295 292 291 289 286
273 277 276 266 273 270 274 277 277 280 287 289 292 292 295 297 299 300 300 300 301 302 302 304 306 306 306 307 306 304 303 302 301 300 298 299 297 296 295 291 290 287 285
272 275 274 274 275 277 280 280 281 285 288 291 293 295 296 298 299 300 301 301 302 303 303 304 306 306 306 306 305 304 304 302 300 298 297 296 296 295 295 291 286 285 284
271 273 277 279 275 281 283 284 286 288 291 293 295 296 297 299 299 301 302 302 303 304 304 305 306 307 307 306 305 304 303 301 299 296 294 293 296 296 295 288 285 284 284
269 277 278 279 282 283 286 287 289 292 294 296 297 298 299 300 301 301 302 303 303 303 304 304 305 306 306 307 306 305 302 300 297 295 293 293 294 294 293 288 286 286 284
271 278 280 282 284 285 288 290 292 293 295 297 298 299 300 301 302 302 303 303 304 304 304 304 305 306 306 306 306 306 302 298 296 294 293 293 292 291 290 287 286 284 284
274 279 281 283 286 289 290 292 294 295 296 298 299 300 302 302 303 304 304 305 306 305 305 304 303 304 303 304 303 303 298 295 293 294 294 293 291 289 288 284 283 284 285
275 279 283 286 288 290 290 293 295 296 297 298 300 302 303 304 304 305 306 307 307 307 306 306 304 302 301 300 298 300 297 292 291 294 294 292 291 288 285 282 283 285 288
278 282 285 287 289 291 293 295 296 298 299 300 302 302 304 305 305 306 307 307 308 308 308 306 304 302 299 296 292 294 291 289 291 294 294 292 289 286 284 282 283 286 286
281 283 286 289 291 293 294 296 298 299 301 303 303 304 305 305 306 307 308 308 308 309 310 309 307 304 300 296 287 288 285 284 288 295 295 290 287 286 284 281 282 286 289